Regional Weather Roundup
Issued by NWS Charleston, SC

Current Version | Previous Version | Text Only | Print | Product List | Glossary Off
Versions: 1 2 3 4 5 6 7 8 9 10 11 12 13 14 15 16 17 18 19 20 21 22 23 24 25 26 27 28 29 30 31 32 33 34 35 36 37 38 39 40 41 42 43 44 45 46 47 48 49 50

000
ASUS42 KCHS 270726
RWRCHS

REGIONAL WEATHER ROUNDUP
NATIONAL WEATHER SERVICE CHARLESTON SC
200 AM EST FRI FEB 27 2015

NOTE: "FAIR" INDICATES FEW OR NO CLOUDS BELOW 12,000 FEET WITH NO
SIGNIFICANT WEATHER AND/OR OBSTRUCTIONS TO VISIBILITY.

NOT ALL STATIONS ARE QUALITY CONTROLLED BY THE NATIONAL
WEATHER SERVICE. USE DATA WITH CAUTION...ESPECIALLY
DEWPOINT OBSERVATIONS.

SCZ027-030-031-034>040-042>050-270800-
...SOUTHEAST SOUTH CAROLINA...

CITY           SKY/WX    TMP DP  RH WIND       PRES   REMARKS
N CHARLESTON   CLOUDY    38  35  89 N5        30.18R WCI  34
WATERFRONT PRK   N/A     43 N/A N/A N9          N/A
MOUNT PLEASANT LGT RAIN  37  36  93 N3        30.19R
PINOPOLIS        N/A     41  36  81 NE7       30.08F
MONCKS CORNER  FAIR      37  34  87 CALM      30.19R
SUMMERVILLE    NOT AVBL
BEAUFORT MCAS  CLOUDY    40  37  89 N5        30.18R WCI  37
BEAUFORT ARPT  FAIR      39  37  93 CALM      30.19R
HILTON HEAD IS CLOUDY    41  37  87 N5        30.19R
WALTERBORO     CLOUDY    37  37 100 N3        30.20R
ALLENDALE      CLOUDY    41  39  93 CALM      30.19R

...SOUTHERN MIDLANDS AND PEE DEE...

CITY           SKY/WX    TMP DP  RH WIND       PRES   REMARKS
GEORGETOWN     NOT AVBL
KINGSTREE      NOT AVBL
ORANGEBURG     CLOUDY    35  32  88 CALM      30.19R FOG
BARNWELL         N/A     37  37 100 E3        30.20R
AIKEN          CLOUDY    39  39 100 CALM      30.21S
MANNING        FAIR     N/A N/A N/A CALM      30.21R HAZE
COLUMBIA       CLOUDY    35  33  92 S3        30.19R
SUMTER         CLOUDY    32  30  92 N6        30.18R WCI  27
FLORENCE       CLOUDY    34  30  85 N6        30.19R WCI  29
MYRTLE BEACH   CLOUDY    37  32  81 N6        30.20R WCI  33
N MYRTLE BEACH CLOUDY    36  33  89 N5        30.17R WCI  32

$$

GAZ063-065-086>088-099>101-113>116-118-119-134>141-150-270800-
...SOUTHEAST GEORGIA...

CITY           SKY/WX    TMP DP  RH WIND       PRES   REMARKS
SAVANNAH ARPT  CLOUDY    42  37  82 CALM      30.17S
HUNTER AAF     CLOUDY    42  38  86 NE2       30.15R
FORT STEWART   CLOUDY    40  38  93 N5        30.16R WCI  36
STATESBORO     CLOUDY    43  40  92 CALM      30.19R
SYLVANIA       CLOUDY    42  41  96 CALM      30.20R
CLAXTON        CLOUDY    43  41  93 N3        30.19R

...CSRA...CENTRAL AND FAR SOUTHEAST GEORGIA...

CITY           SKY/WX    TMP DP  RH WIND       PRES   REMARKS
THOMSON        CLOUDY    39  39 100 CALM      30.23R
AUGUSTA-BUSH   CLOUDY    41  38  89 CALM      30.19R
AUGUSTA-DANIEL CLOUDY    44  38  79 NW3       30.18S
SWAINSBORO     CLOUDY    43  32  65 N3        30.19S
VIDALIA        CLOUDY    45  43  93 N7        30.18S
EASTMAN        CLOUDY    41  36  82 CALM      30.22R
HAZLEHURST     CLOUDY    45  45 100 CALM      30.17S
ALMA           CLOUDY    44  41  89 NW3       30.17R
WAYCROSS       CLOUDY    46  45  95 N3        30.17S
JESUP          PTSUNNY   46  43  87 N5        30.17S
BAXLEY         CLOUDY    45  43  93 CALM      30.17R
BRUNSWICK      CLOUDY    45  41  87 CALM      30.17R
SAINT SIMONS   CLOUDY    46  40  79 NE6       30.15R

$$

SCZ027-028-034-036>038-045-046-048>050-GAZ119-141-270800-
...LAKE AND SUPPLEMENTAL COASTAL OBSERVATIONS...

STATION/POSITION TIME  TEMP    WIND        PRES    WAVE   SWELL
                       AIR SEA DIR/SP/G            HT/PER HT/PER/DIR
                 (UTC) (F)     (DEG/KT/KT) (MB)    (FT/S) (FT/S/D)
UPR LAKE MARION  NOT AVBL
WINYAH BAY       0600   37     340/  3     1020.0S
LAKE MURRAY      0700   38      60/  2/  3 1022.0R
ACE BASIN NERRS  NOT AVBL
FORT PULASKI     0612   43 49   30/  7/  9 1021.9R
SAPELO ISLAND    0600   44      30/  4     1021.0S

$$

ANZ835-935-AMZ111-154-330-350-352-354-370-450-454-472-270800-
...C-MAN AND BUOY OBSERVATIONS...

STATION/POSITION TIME  TEMP    WIND        PRES    WAVE   SWELL
                       AIR SEA DIR/SP/G            HT/PER HT/PER/DIR
                 (UTC) (F)     (DEG/KT/KT) (MB)    (FT/S) (FT/S/D)
BUOY 41004       0650   46 65   10/ 14/ 17 1020.3R   5/ 8   3/ 8
BUOY 41008       0650   47 52   30/ 14/ 17 1020.7R   4/ 5   2/120/ 8
FOLLY BEACH CMAN 0700   40      20/  9/ 11 1022.2R
CAPERS NEARSHORE NOT AVBL
FRIPP NEARSHORE  0600   44      60/ 10/ 12 1020.5R


STATION/POSITION TIME  TEMP    WIND        PRES    WAVE   SWELL
                       AIR SEA DIR/SP/G            HT/PER HT/PER/DIR
                 (UTC) (F)     (DEG/KT/KT) (MB)    (FT/S) (FT/S/D)
5E ST. MARYS GA  0621      53                N/A     3/11   2/100/11
FRYING PAN BUOY  0650   43 60   20/ 14/ 17 1021.1R   6/ 9   5/160/ 9
BUOY 41025       NOT AVBL
CAPE LOOKOUT NC  0700   35     350/ 12/ 13 1021.0R
BUOY 41002       0650   62 70  320/ 12/ 16 1017.0F   9/ 9   8/260/ 9
BUOY 41010       0620   66 74   20/ 12/ 14 1017.1R
ST AUGUSTINE FL  0700   51      20/ 15/ 16 1020.4R


$$


USA.gov is the U.S. government's official web portal to all federal, state and local government web resources and services.